Regional Weather Roundup
Issued by NWS Portland, ME

Home | Current Version | Previous Version | Text Only | Print | Product List | Glossary On
Versions: 1 2 3 4 5 6 7 8 9 10 11 12 13 14 15 16 17 18 19 20 21 22 23 24 25 26 27 28 29 30 31 32 33 34 35 36 37 38 39 40 41 42 43 44 45 46 47 48 49 50
000
ASUS41 KGYX 160910
RWRGYX
WEATHER ROUNDUP FOR MAINE AND NEW HAMPSHIRE
NATIONAL WEATHER SERVICE GRAY ME
500 AM EDT TUE SEP 16 2014

MEZ002-005-006-010-012-015-018-020-021-024-026-027-029-161000-
MAINE

CITY           SKY/WX    TMP DP  RH WIND       PRES   REMARKS
PORTLAND       LGT RAIN  52  49  89 SW3       30.05F
SANFORD        CLOUDY    52  46  82 CALM      30.06S
BAR HARBOR     CLOUDY    52  52 100 CALM      30.04F
WISCASSET      LGT RAIN  52  51  97 W3        30.05F
ROCKLAND       CLOUDY    55  50  82 SW5       30.03F
FRYEBURG       LGT RAIN  49  47  93 CALM      30.05S
LEWISTONAUBURN CLOUDY    52  46  82 S6        30.04S
AUGUSTA        CLOUDY    51  48  89 S5        30.03F
WATERVILLE     CLOUDY    48  45  87 S3        29.98S
BANGOR         PTCLDY    49  46  90 CALM      30.03F
GREENVILLE       N/A     47  41  80 CALM      29.98F
MILLINOCKET    MOCLDY    42  40  92 CALM      30.02S
HOULTON        CLEAR     40  38  93 S5        29.99F
PRESQUE ISLE   MOCLDY    41  37  87 CALM      29.96F
FRENCHVILLE    LGT RAIN  44  41  89 S7        29.94F
CARIBOU        MOCLDY    44  41  89 S5        29.95F
$$

NHZ002-005-008-009-011-012-014-161000-
NEW HAMPSHIRE

CITY           SKY/WX    TMP DP  RH WIND       PRES   REMARKS
PORTSMOUTH     CLOUDY    53  49  87 W2        30.06R
ROCHESTER      LGT RAIN  51  49  92 CALM      30.06S
NASHUA         CLOUDY    50  48  92 CALM      30.07S
MANCHESTER     CLOUDY    52  46  80 SE3       30.05S
CONCORD        LGT RAIN  50  49  96 CALM      30.06S
LACONIA        CLOUDY    52  46  82 CALM      30.04S
PLYMOUTH       LGT RAIN  47  47 100 CALM      30.06S
BERLIN         CLOUDY    45  44  97 CALM      30.02F
WHITEFIELD     LGT RAIN  46  44  93 CALM      30.03S
JAFFREY        CLOUDY    47  46  97 CALM      30.06S
LEBANON        LGT RAIN  50  47  89 CALM      30.03S
MT WASHINGTON  LGTSLEET  32  32 100 W24         N/A  VSB 1/16WCI  19
$$

VTZ005-007-008-161000-
VERMONT

CITY           SKY/WX    TMP DP  RH WIND       PRES   REMARKS
ST JOHNSBURY     N/A     48  47  96 MISG      30.01S
MONTPELIER     LGT RAIN  48  47  96 CALM      30.05F
BURLINGTON     LGT RAIN  53  48  83 S5        30.02S
$$

MAZ007-012-024-CTZ003-RIZ002-NYZ038-NYZ072-161000-
SOUTHERN NEW ENGLAND AND NY

CITY           SKY/WX    TMP DP  RH WIND       PRES   REMARKS
BOSTON         CLOUDY    56  49  77 S5        30.05S
WORCESTER      CLOUDY    52  45  77 SW3       30.06R
NANTUCKET      MOCLDY    59  49  69 SE10      30.05F
PROVIDENCE     CLOUDY    52  49  89 CALM      30.06S
HARTFORD       CLOUDY    52  48  86 CALM      30.04S
ALBANY         LGT RAIN  53  50  89 CALM      30.04R
NEW YORK CITY  CLOUDY    63  54  72 SW6       30.03F
$$

ANZ081-ANZ082-ANZ150-NHZ014-MEZ023>029-161000-
COASTAL MARINE OBSERVATIONS

STATION/POSITION TIME  TEMP    WIND        PRES    WAVE
                       AIR SEA DIR/SP/G            HT/PER
                 (UTC) (F)     (DEG/KT/KT) (MB)    (FT/S)
MATINICUS ROCK   0900          190/ 11/ 12 1016.8F
PORTLAND WX BUOY 0850   57 59  270/  8/ 10 1017.1F   2/ 7
WELLS            0800   53 59  280/  1/  3 1017.2F
ISLE OF SHOALS   0900   58     280/  7/  7 1017.4R
JEFFREYS LEDGE   0821      61                N/A     2/ 7
CASHES LEDGE BUO 0850   60 63              1016.9F   2/ 8
$$

.............KEY..............
   WCI - WIND CHILL
   TC  - TEMPERATURE IN CELSIUS
   VSB - VISIBILITY IN MILES
   HX  - HEAT INDEX
   FAIR- INDICATES FEW OR NO CLOUDS BELOW 12,000 FT, WITH NO
         SIGNIFICANT WEATHER AND/OR OBSTRUCTIONS TO VISIBILITY.




USA.gov is the U.S. government's official web portal to all federal, state and local government web resources and services.